Tracking 19651 objects as of 23-Apr-2019
HD Live streaming from Space Station
objects crossing your sky now

THORAD DELTA 1 DEB

Track THORAD DELTA 1 DEB now!
10-day predictions


NORAD ID: 42619
Int'l Code: 1974-089GL
Perigee: 981.4 km
Apogee: 1,271.6 km
Inclination: 102.1 °
Period: 107.7 minutes
Semi major axis: 7497 km
RCS: Unknown
Launch date: November 15, 1974
Source: United States (US)
Launch site: AIR FORCE WESTERN TEST RANGE (AFWTR)

Note: This is SATELLITE DEBRIS
aabbcc
Your satellite tracking list
Your tracking list is empty




NASA's NSSDC Master Catalog

Two Line Element Set (TLE):
1 42619U 74089GL  19112.76278075  .00000355  00000-0  71115-3 0  9997
2 42619 102.0842 305.2887 0193483  91.2161 335.6894 13.37299507 35644
Source of the keplerian elements: AFSPC